Darwin, Australia

2:23 AM ACST on March 26, 2017 (GMT +0930)
Darwin

Weather History for 94120 - July, 2013

Change the Weather History Date:

Wednesday, July 24, 2013

  Actual Average Record
Temperature  
Mean Temperature 75 °F -  
Max Temperature 84 °F 88 °F - ()
Min Temperature 66 °F 69 °F - ()
Cooling Degree Days 10    
Growing Degree Days 25 (Base 50)    
Moisture  
Dew Point 30 °F    
Average Humidity 18    
Maximum Humidity 35    
Minimum Humidity 4    
Precipitation  
Precipitation 0.00 in 0.01 in - ()
Sea Level Pressure  
Sea Level Pressure 29.99 in    
Wind  
Wind Speed 12 mph ()    
Max Wind Speed 22 mph    
Max Gust Speed -    
Visibility 16.0 miles    
Events      
T = Trace of Precipitation, MM = Missing Value Source: Averaged Metar Reports

Daily Weather History Graph

Daily Weather History Graph

Search for Another Location

Airport or City:

Trip Planner

Search our weather history database for the weather conditions in past years. The results will help you decide how hot, cold, wet, or windy it might be!

Date:

Astronomy

Jul. 24, 2013 Rise Set
Actual Time 7:07 AM ACST 6:38 PM ACST
Civil Twilight 6:45 AM ACST 7:00 PM ACST
Nautical Twilight 6:19 AM ACST 7:26 PM ACST
Astronomical Twilight 5:53 AM ACST 7:52 PM ACST
Moon 8:13 PM ACST (7/24) 8:02 AM ACST (7/24)
Length of Visible Light 12h 15m
Length of Day
11h 30m
Full, 97% of the Moon is Illuminated
Jul 24
Full
Jul 30
Last Quarter
Aug 7
New
Aug 14
First Quarter
Aug 21
Full

Hourly Weather History & Observations

Time (ACST) Temp. Dew Point Humidity Pressure Visibility Wind Dir Wind Speed Gust Speed Precip Events Conditions
12:00 AM 74 °F 34 °F 14% 30.01 in 12 mi SE 10.4 mph - -   Smoke
12:00 AM 73.4 °F 33.8 °F 23% 30.01 in - SE 10.4 mph - N/A   Clear
12:30 AM 74 °F 34 °F 13% 30.01 in - SE 12.7 mph - -  
12:30 AM 73.4 °F 33.8 °F 23% 30.01 in - SE 12.7 mph - N/A   Clear
1:00 AM 71.6 °F 35.6 °F 27% 30.01 in - SE 10.4 mph - N/A   Clear
1:30 AM 71.6 °F 35.6 °F 27% 30.01 in - SE 9.2 mph - N/A   Clear
2:00 AM 71.6 °F 33.8 °F 25% 30.01 in - SE 10.4 mph - N/A   Clear
2:30 AM 71.6 °F 33.8 °F 25% 30.01 in - SE 10.4 mph - N/A   Clear
3:00 AM 71 °F 33 °F 14% 30.00 in 19 mi SE 11.5 mph - -   Partly Cloudy
3:00 AM 71.6 °F 33.8 °F 25% 30.01 in - SE 11.5 mph - N/A   Clear
3:30 AM 70 °F 33 °F 15% 29.99 in - SE 11.5 mph - -  
3:30 AM 69.8 °F 32.0 °F 25% 29.98 in - SE 11.5 mph - N/A   Clear
4:00 AM 69.8 °F 33.8 °F 27% 29.98 in - SE 10.4 mph - N/A   Clear
4:30 AM 68.0 °F 32.0 °F 26% 29.98 in - SE 10.4 mph - N/A   Clear
5:00 AM 68.0 °F 30.2 °F 24% 29.98 in - SE 10.4 mph - N/A   Clear
5:30 AM 68.0 °F 30.2 °F 24% 29.98 in - SE 11.5 mph - N/A   Clear
6:00 AM 68 °F 28 °F 13% 30.00 in 19 mi SE 15.0 mph - -   Partly Cloudy
6:00 AM 68.0 °F 28.4 °F 23% 30.01 in - SE 15.0 mph - N/A   Clear
6:30 AM 68 °F 27 °F 12% 30.01 in - SE 15.0 mph - -  
6:30 AM 68.0 °F 26.6 °F 21% 30.01 in - SE 15.0 mph - N/A   Clear
7:00 AM 68.0 °F 26.6 °F 21% 30.01 in - SE 16.1 mph - N/A   Clear
7:30 AM 66.2 °F 26.6 °F 23% 30.01 in - SE 15.0 mph - N/A   Clear
8:00 AM 68.0 °F 26.6 °F 21% 30.04 in - SE 17.3 mph - N/A   Clear
8:30 AM 68.0 °F 24.8 °F 20% 30.04 in - SE 17.3 mph - N/A   Clear
9:00 AM 70 °F 23 °F 8% 30.05 in 19 mi SE 20.7 mph - -   Partly Cloudy
9:00 AM 69.8 °F 23.0 °F 17% 30.04 in - SE 20.7 mph - N/A   Clear
9:30 AM 72 °F 20 °F 7% 30.06 in - SE 20.7 mph - -  
9:30 AM 71.6 °F 21.2 °F 15% 30.04 in - SE 20.7 mph - N/A   Clear
10:00 AM 73.4 °F 21.2 °F 14% 30.04 in - SE 21.9 mph - N/A   Clear
10:30 AM 75.2 °F 21.2 °F 13% 30.04 in - SE 19.6 mph - N/A   Clear
11:00 AM 77.0 °F 19.4 °F 12% 30.04 in - ESE 20.7 mph - N/A   Clear
11:30 AM 77.0 °F 19.4 °F 12% 30.01 in - SSE 19.6 mph - N/A   Clear
12:00 PM 79 °F 19 °F 4% 30.01 in 12 mi SE 17.3 mph - -   Haze
12:00 PM 78.8 °F 19.4 °F 11% 30.01 in - SE 17.3 mph - N/A   Clear
12:30 PM 81 °F 22 °F 5% 30.00 in - SE 17.3 mph - -  
12:30 PM 80.6 °F 21.2 °F 11% 29.98 in - SE 17.3 mph - N/A   Clear
1:00 PM 82.4 °F 21.2 °F 10% 29.98 in - SE 18.4 mph - N/A   Clear
1:30 PM 82.4 °F 23.0 °F 11% 29.98 in - SSE 12.7 mph - N/A   Clear
2:00 PM 82.4 °F 24.8 °F 12% 29.95 in - SE 11.5 mph - N/A   Clear
2:30 PM 84.2 °F 26.6 °F 12% 29.92 in - ESE 17.3 mph - N/A   Clear
3:00 PM 83 °F 26 °F 6% 29.93 in 16 mi SE 13.8 mph - -   Haze
3:00 PM 84.2 °F 24.8 °F 11% 29.92 in - SE 13.8 mph - N/A   Clear
3:30 PM 84 °F 28 °F 6% 29.92 in - ESE 15.0 mph - -  
3:30 PM 84.2 °F 26.6 °F 12% 29.92 in - ESE 15.0 mph - N/A   Clear
4:00 PM 84.2 °F 28.4 °F 13% 29.92 in - SSE 12.7 mph - N/A   Clear
4:30 PM 84.2 °F 32.0 °F 15% 29.92 in - ESE 11.5 mph - N/A   Clear
5:00 PM 84.2 °F 32.0 °F 15% 29.92 in - ESE 12.7 mph - N/A   Clear
5:30 PM 84.2 °F 32.0 °F 15% 29.92 in - ESE 12.7 mph - N/A   Clear
6:00 PM 83 °F 33 °F 9% 29.92 in 12 mi ESE 12.7 mph - -   Haze
6:00 PM 82.4 °F 33.8 °F 17% 29.92 in - ESE 12.7 mph - N/A   Clear
6:30 PM 80 °F 35 °F 11% 29.93 in - East 6.9 mph - -  
6:30 PM 80.6 °F 35.6 °F 20% 29.92 in - East 6.9 mph - N/A   Clear
7:00 PM 78.8 °F 37.4 °F 23% 29.95 in - ESE 5.8 mph - N/A   Clear
7:30 PM 77.0 °F 39.2 °F 26% 29.95 in - SE 6.9 mph - N/A   Clear
8:00 PM 73.4 °F 39.2 °F 29% 29.95 in - SE 6.9 mph - N/A   Clear
8:30 PM 73.4 °F 39.2 °F 29% 29.98 in - SE 6.9 mph - N/A   Clear
9:00 PM 73 °F 38 °F 18% 29.99 in 19 mi SE 8.1 mph - -   Smoke
9:00 PM 73.4 °F 39.2 °F 29% 29.98 in - SE 8.1 mph - N/A   Clear
9:30 PM 73 °F 38 °F 17% 30.00 in - SE 6.9 mph - -  
9:30 PM 73.4 °F 37.4 °F 27% 29.98 in - SE 6.9 mph - N/A   Clear
10:00 PM 73.4 °F 39.2 °F 29% 30.01 in - SSE 8.1 mph - N/A   Clear
10:30 PM 71.6 °F 42.8 °F 35% 30.01 in - SSE 10.4 mph - N/A   Clear
11:00 PM 71.6 °F 41.0 °F 33% 30.01 in - SSE 9.2 mph - N/A   Clear
11:30 PM 69.8 °F 41.0 °F 35% 30.01 in - SSE 9.2 mph - N/A   Clear